Regional Weather Roundup
Issued by NWS Northern Indiana

Home | Current Version | Previous Version | Text Only | Print | Product List | Glossary On
Versions: 1 2 3 4 5 6 7 8 9 10 11 12 13 14 15 16 17 18 19 20 21 22 23 24 25 26 27 28 29 30 31 32 33 34 35 36 37 38 39 40 41 42 43 44 45 46 47 48 49 50
572
ASUS43 KIWX 232110
RWRIWX

KIWX WEATHER ROUNDUP
NATIONAL WEATHER SERVICE NORTHERN INDIANA
400 PM EST TUE JAN 23 2018

NOTE: "FAIR" INDICATES FEW OR NO CLOUDS BELOW 12,000 FEET WITH NO
SIGNIFICANT WEATHER AND/OR OBSTRUCTIONS TO VISIBILITY.

* THESE STATIONS ARE NOT UNDER NWS QUALITY CONTROL. THEY ALSO MAY NOT
  REPORT WEATHER SUCH AS PRECIPITATION OR FOG.

INZ001>027-232200-
NORTHERN INDIANA

CITY           SKY/WX    TMP DP  RH WIND       PRES   REMARKS
GARY*          CLOUDY    32  25  74 NW12      29.94R WCI  23
VALPARAISO     LGT SNOW  30  26  85 NW8       29.93R VSB 3/4 WCI  22
MICHIGAN CITY* LGT SNOW  30  28  93 NW9G16    29.93R WCI  22
LAPORTE*       CLOUDY    29  26  86 NW9G16    29.91R WCI  21
KNOX*          CLOUDY    32  28  86 NW10      29.90R WCI  24
SOUTH BEND     CLOUDY    29  26  89 NW13      29.89R WCI  19
ELKHART*       CLOUDY    30  27  86 NW12      29.87R WCI  21
GOSHEN         CLOUDY    31  26  82 W18       29.86R WCI  19
MONTICELLO*    CLOUDY    32  29  90 NW15G21   29.93R WCI  21
LOGANSPORT*    CLOUDY    32  30  93 W9        29.92R FOG     WCI  24
ROCHESTER*     CLOUDY    34  32  93 NW13G21   29.90R WCI  25
WARSAW*        CLOUDY    30  28  93 W15       29.88R WCI  19
AUBURN*        CLOUDY   N/A N/A N/A W18G30    29.84R
FORT WAYNE     CLOUDY    33  28  81 W20       29.86R WCI  21
HUNTINGTON*    CLOUDY    32  28  86 W8G16     29.88R WCI  25
PERU/GRISSOM   FLURRIES  33  33 100 NW15      29.90R WCI  22
MARION*        CLOUDY    33  30  89 W14G20    29.90R WCI  23

$$
INZ028>050-232200-
CENTRAL INDIANA

CITY           SKY/WX    TMP DP  RH WIND       PRES   REMARKS
LAFAYETTE      CLOUDY    32  29  88 W14       29.95R WCI  22
MUNCIE*        CLOUDY    37  30  75 W14       29.90R
INDIANAPOLIS   LGT RAIN  36  33  89 W17       29.94R

$$
MIZ043>046-050>051-056>058-064>065-071>073-077>080-232200-
SOUTHWEST LOWER MICHIGAN

CITY           SKY/WX    TMP DP  RH WIND       PRES   REMARKS
BATTLE CREEK   CLOUDY    30  25  81 W18G31    29.79R WCI  18
BENTON HARBOR  CLOUDY    31  25  78 NW13G22   29.88R WCI  21
COLDWATER*     CLOUDY    32  28  88 W16G23    29.79R WCI  21
HILLSDALE*     CLOUDY    32  27  80 W22G28    29.74R WCI  19
HOLLAND        LGT SNOW  31  26  82 NW12G26   29.84R WCI  22
GRAND RAPIDS   CLOUDY    29  23  78 W18G26    29.78R WCI  16
KALAMAZOO      FLURRIES  31  25  78 NW17G32   29.81R WCI  19
THREE RIVERS*  CLOUDY    32  27  82 NW15G25   29.83R WCI  22

$$
OHZ001>008-015>018-024>025-232200-
NORTHWEST OHIO

CITY           SKY/WX    TMP DP  RH WIND       PRES   REMARKS
WAUSEON*       CLOUDY    34  32  93 W25       29.77R WCI  21
DEFIANCE       CLOUDY    34  27  75 W12G23    29.81R WCI  25
FINDLAY        CLOUDY    36  29  75 W24G31    29.78R
TOLEDO EXPRESS CLOUDY    35  29  78 W20G31    29.76R WCI  24
TOLEDO METCALF CLOUDY    36  27  69 W23G30    29.76R
LIMA           CLOUDY    34  32  92 W23       29.82R WCI  22

$$
AND FOR LAKE MICHIGAN COASTAL AND OPEN LAKE BUOY OBSERVATIONS

STATION/POSITION TEMP    WIND        PRES    VSBY  WAVE
                 AIR SEA DIR/SP/G                  HT/PER
                 (F)     (DEG/KT/KT) (MB)    (MI)  (FT/S)
CALUMET HARBOR    30     290/  6/ 14 1013.1R
MICHIGAN CITY     29     290/ 22/ 24   N/A
BURNS HARBOR      30     310/ 15/ 18 1013.5R
SAINT JOSEPH      31     310/ 17/ 20 1012.9

$$
&&




USA.gov is the U.S. government's official web portal to all federal, state and local government web resources and services.